This demonstration page uses our WeatherBlox Daily Observations layout. Learn more.

Left ArrowRight Arrow

34.74481, -87.66753

Hourly Observations for February 16, 2021

Temp ( °F °C ) Dew Point ( °F °C ) Humidity (%) Winds ( mph kmh ) Pressure ( in mb ) Visibility ( mi km ) Precip ( " mm )
12:53 am 00:53 Cloudy 15 -9.4 7 -13.9 70 70 WNW 12 19 30.05 1018 7 11 0.00 0.00
1:20 am 01:20 Cloudy with Haze 14 -10 6 -14.4 71 71 WNW 10 17 30.08 1019 5 8 0.00 0.00
1:53 am 01:53 Cloudy 14 -10 6 -14.4 71 71 WNW 13 20 30.05 1018 9 14 0.00 0.00
2:11 am 02:11 Cloudy 14 -10 6 -14.4 71 71 W 12 19 30.10 1019 7 11 0.00 0.00
2:53 am 02:53 Cloudy with Light Snow 14 -10 6 -14.4 71 71 WNW 13 20 30.07 1018 4 6 0.00 0.00
3:53 am 03:53 Cloudy with Light Snow 14 -10 6 -14.4 71 71 WNW 13 20 30.09 1019 4 6 0.00 0.00
4:53 am 04:53 Cloudy with Light Snow 13 -10.6 5 -15 70 70 W 16 26 30.13 1020 3 5 0.00 0.00
5:53 am 05:53 Cloudy 13 -10.6 5 -15 70 70 WNW 10 17 30.14 1021 8 13 0.00 0.00
6:53 am 06:53 Cloudy with Haze 13 -10.6 4 -15.6 67 67 W 12 19 30.17 1022 5 8 0.00 0.00
7:10 am 07:10 Cloudy with Light Snow 13 -10.6 5 -15 70 70 WNW 9 15 30.21 1023 2 3 0.00 0.00
7:17 am 07:17 Cloudy with Light Snow 13 -10.6 5 -15 70 70 WNW 9 15 30.21 1023 2 3 0.00 0.00
7:25 am 07:25 Cloudy with Light Snow 13 -10.6 4 -15.6 67 67 WNW 13 20 30.22 1024 3 4 0.00 0.00
7:34 am 07:34 Cloudy with Light Snow 13 -10.6 5 -15 70 70 NW 10 17 30.22 1024 1 2 0.00 0.00
7:53 am 07:53 Cloudy with Light Snow 13 -10.6 4 -15.6 67 67 WNW 7 11 30.20 1023 2 3 0.00 0.00
8:36 am 08:36 Cloudy with Haze 13 -10.6 4 -15.6 67 67 W 8 13 30.25 1025 3 5 0.00 0.00
8:53 am 08:53 Cloudy with Light Snow 13 -10.6 4 -15.6 67 67 WNW 7 11 30.24 1024 2 3 0.00 0.00
9:01 am 09:01 Cloudy with Light Snow 14 -10 5 -15 67 67 WNW 7 11 30.27 1025 2 2 0.00 0.00
9:46 am 09:46 Cloudy with Haze 15 -9.4 5 -15 64 64 WNW 8 13 30.27 1025 3 5 0.00 0.00
9:53 am 09:53 Cloudy with Haze 15 -9.4 6 -14.4 67 67 WNW 8 13 30.24 1024 2 3 0.00 0.00
10:07 am 10:07 Cloudy with Light Snow 15 -9.4 6 -14.4 67 67 WNW 12 19 30.29 1026 2 2 0.00 0.00
10:31 am 10:31 Cloudy with Light Snow 16 -8.9 6 -14.4 65 65 NW 9 15 30.28 1025 3 5 0.00 0.00
10:46 am 10:46 Cloudy with Light Snow 16 -8.9 6 -14.4 65 65 NW 8 13 30.28 1025 2 3 0.00 0.00
10:53 am 10:53 Cloudy with Light Snow 16 -8.9 6 -14.4 65 65 WNW 9 15 30.25 1024 3 4 0.00 0.00
11:02 am 11:02 Cloudy with Haze 16 -8.9 6 -14.4 65 65 NNW 7 11 30.27 1025 4 6 0.00 0.00
11:53 am 11:53 Cloudy 16 -8.9 7 -13.9 67 67 WSW 8 13 30.27 1025 7 11 0.00 0.00
12:53 pm 12:53 Cloudy 18 -7.8 7 -13.9 62 62 Calm 30.26 1025 8 13 0.00 0.00
1:53 pm 13:53 Cloudy with Light Snow 20 -6.7 11 -11.7 68 68 Calm 30.25 1024 2 3 0.00 0.00
2:15 pm 14:15 Cloudy with Light Snow 20 -6.7 10 -12.2 65 65 NW 7 11 30.27 1025 3 5 0.00 0.00
2:53 pm 14:53 Cloudy with Haze 20 -6.7 9 -12.8 62 62 Calm 30.25 1024 4 6 0.00 0.00
3:53 pm 15:53 Partly Cloudy 22 -5.6 11 -11.7 63 63 N 7 11 30.24 1024 10 16 0.00 0.00
4:53 pm 16:53 Partly Cloudy 21 -6.1 10 -12.2 62 62 ENE 7 11 30.25 1024 10 16 0.00 0.00
5:30 pm 17:30 Mostly Cloudy 20 -6.7 10 -12.2 65 65 E 6 9 30.29 1026 10 16 0.00 0.00
5:53 pm 17:53 Partly Cloudy 20 -6.7 10 -12.2 65 65 E 5 7 30.27 1025 10 16 0.00 0.00
6:53 pm 18:53 Mostly Clear 19 -7.2 10 -12.2 68 68 ENE 6 9 30.25 1024 10 16 0.00 0.00
7:09 pm 19:09 Mostly Cloudy 19 -7.2 11 -11.7 71 71 E 5 7 30.29 1026 10 16 0.00 0.00
7:53 pm 19:53 Partly Cloudy 19 -7.2 10 -12.2 68 68 SSE 3 6 30.29 1026 10 16 0.00 0.00
8:53 pm 20:53 Partly Cloudy 19 -7.2 11 -11.7 71 71 NE 6 9 30.28 1025 10 16 0.00 0.00
9:53 pm 21:53 Clear 19 -7.2 10 -12.2 68 68 ENE 5 7 30.28 1025 10 16 0.00 0.00
10:53 pm 22:53 Clear 19 -7.2 11 -11.7 71 71 ENE 5 7 30.27 1025 10 16 0.00 0.00
11:19 pm 23:19 Mostly Cloudy 20 -6.7 11 -11.7 68 68 ENE 3 6 30.31 1026 10 16 0.00 0.00
11:49 pm 23:49 Mostly Cloudy 19 -7 10 -12 68 68 NE 7 11 30.31 1026 10 16 0.00 0.00
11:53 pm 23:53 Mostly Cloudy 19 -7.2 11 -11.7 71 71 NE 7 11 30.27 1025 10 16 0.00 0.00

Powered by AerisWeather